Wind_Speed
4 3 3 4 4 5 5 6 7 9 13 17 19 22 23 25 25 22 22 24 22 20 20 21 22 23 25 26 28 30 32 33 34 35 36 37 37 38 38 38 39 39 38 38
2 3 4 5 6 6 7 9 9 10 13 17 19 21 22 25 26 24 21 19 19 18 18 19 21 22 25 26 28 30 32 34 36 37 37 37 38 39 39 39 40 40 39 38
4 4 5 6 6 7 7 8 10 13 15 17 20 23 25 25 25 23 19 16 16 17 18 20 22 24 26 28 30 32 34 35 36 37 37 38 38 39 39 39 40 40 40 39
5 5 5 5 6 7 7 8 9 13 16 18 20 21 22 23 23 20 15 14 15 17 19 21 23 26 27 29 31 32 34 35 35 36 37 37 38 39 39 40 40 40 39 39
4 4 5 4 6 7 6 8 9 11 12 14 15 17 18 20 18 14 12 13 15 16 19 22 25 26 28 29 30 31 33 34 34 35 36 37 38 39 39 39 39 39 39 39
4 2 4 5 5 6 7 9 9 10 10 11 13 15 16 14 14 13 14 16 17 18 20 22 24 26 27 28 29 30 31 32 33 34 34 35 36 37 38 38 38 38 39 39
3 2 3 4 6 5 6 8 8 9 9 10 13 14 13 14 15 15 16 18 20 21 23 24 25 26 27 27 28 29 30 31 32 33 34 35 35 36 37 38 39 39 40 40
3 3 4 5 5 6 7 8 8 10 10 11 12 13 14 16 17 18 20 22 24 26 26 27 27 28 28 28 29 30 31 32 32 33 34 35 36 36 37 38 39 39 40 41
6 6 6 6 6 7 8 8 9 10 10 11 11 13 15 18 20 22 24 26 28 29 29 30 30 30 31 31 32 32 33 33 33 34 35 36 37 37 39 40 40 40 40 41
6 6 7 7 6 7 8 9 9 8 10 11 13 15 17 20 22 25 27 29 30 31 31 32 32 32 33 34 34 34 34 34 34 35 36 37 38 39 40 41 41 42 41 41
6 5 5 4 4 6 8 8 9 10 12 13 15 17 20 22 25 27 29 30 31 32 32 33 33 33 34 35 36 36 36 36 37 37 38 38 39 40 41 41 41 42 42 42
5 5 5 5 5 6 8 8 10 12 13 15 17 19 22 23 26 28 30 31 33 33 33 34 34 35 35 36 37 37 37 37 38 38 39 39 40 41 41 41 41 41 41 41
4 5 6 6 6 7 8 9 11 12 14 16 19 21 23 25 27 29 30 32 33 34 34 35 35 36 36 37 37 37 37 37 38 38 39 39 40 41 41 41 41 41 40 40
4 5 5 5 5 6 8 9 11 13 16 17 19 21 23 25 27 28 30 32 34 34 35 36 36 36 37 37 37 37 37 37 38 39 40 40 40 40 40 40 39 39 38 37
4 5 5 5 6 7 8 9 11 14 16 18 20 22 24 26 27 29 32 33 34 34 35 36 37 37 37 37 37 38 38 38 39 40 40 40 40 40 39 38 37 37 36 35
3 4 5 5 6 7 8 10 12 14 16 19 21 23 25 27 28 30 32 33 34 35 36 37 38 38 38 38 38 38 38 39 39 40 40 40 39 39 38 36 35 34 33 32
3 4 4 6 7 8 8 9 11 14 16 19 21 23 25 27 28 30 32 34 35 36 37 38 39 38 38 38 38 38 38 39 39 40 40 39 39 38 36 35 33 31 30 29
4 5 5 7 8 8 9 10 12 15 17 19 21 23 26 28 29 31 33 35 36 37 38 39 39 39 39 39 38 38 38 39 40 40 39 39 38 36 35 33 31 30 28 27
5 6 7 8 9 10 9 12 14 16 17 20 22 24 26 28 30 32 34 35 36 37 38 39 40 40 39 38 38 38 39 39 39 39 39 37 36 34 33 31 29 28 26 25
5 6 7 9 10 10 10 13 15 16 18 20 22 24 26 28 30 32 34 36 37 38 39 39 40 40 39 38 38 38 38 39 39 39 38 36 35 33 31 30 29 27 25 23
7 8 9 11 12 11 12 14 16 18 20 21 23 25 26 28 30 32 34 36 37 38 39 40 40 40 39 38 38 38 38 39 39 38 37 36 34 33 31 29 28 26 24 22
11 12 12 13 13 14 14 16 17 19 20 22 23 25 26 28 30 33 35 36 37 38 39 40 40 39 39 38 38 38 38 39 39 38 37 35 34 32 31 29 27 25 24 22
13 14 14 14 14 14 15 16 18 19 21 22 23 25 26 28 30 33 34 36 37 38 39 39 40 39 39 39 38 38 38 38 39 38 36 35 33 32 31 29 27 26 24 22
14 15 15 15 14 15 15 17 18 20 21 22 24 25 27 28 31 33 34 36 37 37 38 39 39 39 39 39 38 38 38 38 39 38 36 34 33 31 30 29 27 26 25 23
16 16 15 15 16 15 15 17 18 20 21 23 24 25 27 29 31 32 34 35 37 37 38 39 39 39 38 38 38 38 38 38 38 38 36 34 32 31 30 29 28 26 25 24
16 16 16 16 17 18 18 18 19 21 22 24 25 26 27 29 30 32 34 35 37 37 38 38 38 38 38 38 38 38 37 37 37 37 36 34 32 31 30 28 27 26 25 24
Wind_Direction
281 248 213 211 225 237 245 252 262 257 264 269 267 268 270 276 278 279 279 281 286 286 288 291 293 294 292 292 291 291 291 290 289 288 287 286 287 287 286 286 285 285 285 285
283 234 231 222 225 245 265 270 274 277 270 275 274 274 278 282 285 285 286 286 285 284 289 293 296 297 296 294 293 292 292 291 289 288 287 286 286 285 285 285 284 284 283 283
290 246 229 226 235 259 271 279 276 277 280 285 291 290 294 295 296 291 287 287 288 287 292 295 297 298 298 297 295 294 293 291 290 288 287 286 285 285 284 284 283 283 282 281
291 259 253 238 249 264 279 285 287 276 279 287 294 306 315 314 313 306 298 295 297 295 295 299 301 301 301 299 297 296 294 293 291 290 288 287 286 286 285 284 282 281 280 279
318 279 268 261 276 277 292 300 301 299 293 294 301 309 318 324 326 325 324 321 310 306 305 307 306 305 305 304 302 299 297 295 293 291 289 288 287 286 285 283 282 280 278 277
349 291 265 266 284 289 300 309 312 306 302 304 314 325 336 339 343 339 333 327 322 321 317 314 312 310 309 308 305 302 300 298 297 295 293 291 289 288 286 284 282 280 278 276
22 316 286 295 301 305 307 313 309 305 306 310 322 330 342 347 348 344 342 339 334 329 326 323 320 317 315 312 308 306 304 302 300 298 296 294 292 289 287 285 283 281 278 276
4 340 321 332 334 337 332 327 327 327 327 327 334 338 345 349 350 348 345 342 339 337 334 331 327 324 321 318 315 312 309 306 304 301 299 297 295 292 290 288 285 282 279 277
354 344 332 333 333 336 334 335 336 333 333 333 339 344 349 352 352 349 348 345 343 340 337 334 330 327 325 323 320 317 313 310 307 305 302 300 297 295 293 290 288 284 281 278
343 335 332 332 336 342 347 346 344 342 342 344 347 352 355 355 352 352 350 346 342 339 337 335 332 329 326 324 323 320 318 315 312 309 306 304 301 298 296 293 290 287 282 279
336 333 340 345 348 354 352 349 352 353 352 353 354 357 356 355 353 351 348 343 341 339 337 335 333 330 327 326 324 322 320 318 315 312 309 306 304 302 299 296 293 289 284 280
335 330 335 349 355 356 1 4 2 1 2 1 359 359 357 355 352 350 346 343 341 339 337 335 333 330 328 327 325 323 321 319 317 315 312 309 307 305 302 299 296 292 287 283
333 326 323 336 350 360 4 5 4 4 3 2 360 358 356 354 351 348 345 342 341 339 337 335 333 331 329 327 326 325 323 322 320 318 316 313 310 308 305 302 299 295 290 285
327 320 321 330 341 350 358 1 2 4 2 360 357 355 353 351 349 346 344 343 341 339 337 335 334 332 331 329 328 327 326 324 323 322 319 317 315 312 309 306 302 298 293 287
326 327 328 329 330 332 341 351 357 358 357 355 353 352 350 349 348 346 345 343 341 340 338 337 335 334 333 332 330 329 328 327 326 325 323 321 318 316 314 311 307 302 297 290
315 327 323 317 319 323 329 343 349 350 350 350 350 348 347 347 348 346 344 342 341 340 340 340 339 337 336 334 332 331 330 330 329 328 327 325 322 320 319 316 311 306 301 295
301 308 310 308 312 319 325 335 339 342 344 345 344 344 344 345 346 344 343 342 342 342 342 342 341 340 338 336 335 334 334 333 332 332 331 330 327 325 323 321 318 312 306 299
301 307 308 306 308 317 327 329 334 337 338 340 340 341 343 343 343 344 343 343 343 343 343 344 343 342 340 339 339 338 337 337 336 335 335 334 332 330 329 327 324 319 313 306
298 312 315 311 314 324 332 328 330 333 336 337 338 339 340 341 342 343 343 343 343 343 344 344 344 343 342 342 342 341 340 340 340 340 339 338 337 336 335 334 332 329 324 317
296 307 315 315 317 326 331 325 326 330 333 335 335 337 338 340 341 341 342 343 344 345 345 345 345 345 344 344 343 343 343 343 343 343 343 343 342 342 341 339 338 337 334 330
301 317 322 322 323 328 328 326 324 328 329 331 333 335 336 338 339 341 342 344 345 346 346 345 345 346 346 346 345 345 346 346 346 346 346 347 347 347 346 345 344 343 341 339
309 320 324 322 322 325 325 324 323 324 326 328 330 332 334 336 338 340 342 344 345 346 346 346 346 347 347 348 348 348 348 349 350 350 350 350 350 350 350 350 350 349 348 346
308 314 314 314 316 319 320 319 318 319 323 326 328 330 332 335 337 339 341 343 344 346 346 347 348 348 349 349 349 349 350 351 352 352 352 352 353 353 353 354 354 354 353 352
300 303 305 308 311 314 315 313 314 317 321 323 326 328 331 333 336 338 341 343 344 345 347 348 349 349 349 350 350 351 351 353 354 355 355 355 355 356 357 357 357 357 357 357
295 298 304 308 310 312 314 314 315 318 320 323 325 327 329 332 335 338 340 342 343 345 347 348 349 349 350 350 351 351 352 354 355 356 357 357 358 358 359 360 0 0 1 1
291 297 303 307 310 315 318 319 320 320 322 323 325 326 329 331 334 336 339 341 343 345 346 347 348 349 350 351 352 352 353 354 356 357 359 359 0 1 1 1 2 3 5 6
Height
5875 5876 5875 5875 5875 5875 5874 5874 5873 5873 5873 5872 5871 5870 5869 5868 5866 5864 5862 5862 5861 5860 5859 5857 5855 5853 5850 5848 5845 5842 5839 5836 5834 5832 5829 5826 5824 5822 5819 5817 5814 5813 5813 5812
5875 5874 5873 5873 5873 5872 5871 5871 5871 5870 5870 5868 5867 5866 5865 5864 5861 5860 5858 5857 5856 5855 5854 5852 5850 5848 5845 5842 5839 5836 5833 5829 5826 5823 5820 5817 5815 5812 5810 5808 5805 5803 5803 5802
5872 5873 5871 5871 5871 5871 5870 5870 5869 5868 5868 5866 5866 5864 5863 5861 5858 5856 5853 5853 5852 5851 5850 5848 5845 5842 5839 5835 5832 5828 5824 5821 5817 5813 5810 5808 5805 5802 5800 5798 5796 5794 5793 5792
5871 5871 5869 5869 5869 5868 5868 5868 5867 5866 5866 5865 5864 5862 5860 5856 5853 5851 5849 5848 5847 5846 5845 5842 5839 5836 5832 5828 5824 5819 5815 5812 5808 5804 5801 5798 5795 5792 5789 5787 5785 5783 5782 5781
5870 5869 5868 5868 5868 5867 5866 5866 5865 5864 5863 5863 5861 5860 5857 5853 5851 5848 5847 5845 5844 5842 5839 5837 5833 5829 5824 5819 5815 5811 5807 5803 5799 5795 5791 5788 5784 5782 5779 5777 5775 5773 5771 5770
5869 5868 5867 5867 5866 5865 5865 5864 5863 5863 5862 5861 5859 5857 5854 5851 5849 5847 5845 5842 5840 5837 5834 5830 5826 5821 5816 5811 5807 5803 5798 5793 5789 5785 5781 5778 5774 5771 5768 5766 5764 5762 5760 5759
5869 5867 5866 5866 5865 5864 5863 5863 5862 5861 5859 5858 5856 5854 5853 5850 5847 5845 5841 5838 5834 5831 5827 5823 5819 5814 5809 5804 5800 5795 5790 5785 5780 5776 5772 5768 5764 5761 5758 5755 5753 5751 5749 5747
5868 5867 5866 5864 5864 5863 5861 5861 5860 5859 5857 5855 5853 5851 5850 5847 5844 5840 5836 5832 5828 5824 5820 5815 5811 5806 5801 5797 5792 5787 5781 5776 5771 5767 5762 5758 5754 5750 5747 5743 5741 5738 5736 5735
5867 5866 5865 5863 5862 5862 5861 5859 5858 5857 5854 5853 5851 5849 5846 5843 5839 5835 5831 5827 5822 5818 5813 5808 5803 5798 5793 5788 5783 5778 5773 5767 5762 5758 5753 5748 5744 5739 5735 5731 5728 5725 5723 5721
5866 5866 5864 5863 5862 5861 5860 5858 5856 5855 5853 5850 5849 5846 5844 5840 5835 5831 5826 5822 5817 5813 5808 5802 5797 5791 5786 5780 5775 5769 5763 5758 5753 5748 5743 5737 5732 5728 5723 5719 5715 5712 5709 5707
5865 5865 5864 5862 5861 5860 5859 5857 5855 5853 5851 5849 5846 5846 5841 5837 5832 5827 5823 5819 5814 5809 5803 5797 5792 5786 5779 5773 5767 5761 5755 5750 5744 5738 5733 5727 5721 5716 5711 5706 5701 5697 5694 5692
5864 5864 5862 5862 5860 5859 5857 5855 5854 5852 5849 5847 5844 5845 5837 5833 5829 5825 5820 5815 5809 5804 5798 5792 5786 5780 5774 5767 5761 5754 5748 5742 5735 5729 5723 5717 5710 5704 5698 5693 5688 5683 5679 5676
5864 5863 5862 5860 5861 5858 5856 5854 5852 5851 5848 5845 5842 5842 5835 5831 5827 5822 5817 5812 5806 5800 5794 5787 5781 5775 5768 5761 5754 5748 5741 5734 5727 5720 5713 5706 5699 5693 5686 5680 5674 5669 5665 5662
5863 5862 5862 5860 5858 5856 5854 5853 5851 5849 5847 5844 5841 5838 5833 5829 5825 5820 5815 5809 5802 5796 5790 5783 5776 5769 5762 5755 5748 5740 5733 5726 5719 5711 5704 5696 5689 5681 5674 5667 5661 5656 5651 5648
5861 5860 5859 5858 5856 5855 5853 5852 5850 5848 5845 5842 5839 5835 5832 5828 5823 5817 5812 5806 5799 5793 5786 5779 5772 5764 5757 5749 5741 5734 5726 5719 5711 5703 5695 5687 5678 5671 5663 5656 5649 5643 5639 5635
5859 5859 5858 5856 5855 5854 5852 5851 5849 5846 5843 5840 5837 5834 5830 5825 5820 5815 5809 5803 5797 5790 5782 5775 5767 5759 5751 5743 5735 5727 5719 5712 5703 5695 5687 5678 5669 5661 5653 5646 5639 5632 5627 5623
5858 5857 5856 5855 5854 5853 5852 5850 5847 5845 5842 5839 5835 5833 5827 5823 5818 5813 5807 5800 5793 5786 5778 5770 5762 5754 5746 5738 5730 5722 5713 5705 5696 5688 5679 5670 5661 5653 5644 5637 5629 5623 5617 5613
5856 5855 5854 5853 5853 5851 5851 5847 5845 5842 5840 5837 5833 5829 5825 5820 5815 5810 5803 5796 5789 5782 5774 5766 5758 5749 5741 5732 5724 5716 5707 5699 5690 5681 5672 5663 5654 5645 5637 5629 5622 5615 5609 5604
5854 5853 5852 5851 5850 5849 5848 5845 5842 5840 5837 5834 5830 5826 5822 5817 5811 5806 5800 5793 5785 5778 5770 5762 5753 5745 5736 5728 5719 5711 5702 5694 5684 5675 5666 5657 5648 5639 5631 5623 5616 5609 5603 5597
5852 5851 5850 5849 5847 5846 5846 5842 5839 5838 5834 5831 5827 5823 5819 5814 5809 5804 5797 5789 5782 5774 5766 5758 5749 5741 5732 5723 5715 5707 5698 5689 5680 5670 5661 5652 5643 5635 5626 5619 5612 5605 5598 5592
5849 5848 5847 5846 5844 5843 5842 5839 5837 5835 5832 5828 5824 5820 5815 5811 5806 5800 5793 5785 5778 5770 5762 5754 5745 5737 5728 5720 5711 5702 5694 5685 5676 5666 5657 5648 5639 5631 5623 5615 5608 5601 5595 5589
5846 5845 5844 5843 5842 5842 5838 5836 5834 5831 5827 5824 5820 5816 5812 5807 5802 5796 5789 5782 5774 5766 5758 5750 5742 5733 5725 5716 5707 5699 5690 5681 5672 5663 5654 5645 5637 5629 5621 5613 5606 5599 5592 5587
5842 5842 5841 5841 5840 5838 5835 5832 5830 5827 5824 5821 5817 5813 5808 5803 5798 5792 5785 5778 5771 5763 5755 5747 5738 5730 5721 5713 5704 5696 5687 5679 5670 5660 5651 5643 5635 5627 5619 5612 5605 5598 5591 5585
5840 5839 5838 5836 5835 5833 5831 5829 5826 5823 5820 5817 5813 5809 5805 5800 5794 5788 5782 5775 5767 5760 5751 5743 5735 5726 5718 5710 5702 5693 5685 5676 5667 5658 5650 5641 5633 5626 5619 5611 5604 5597 5591 5584
5836 5835 5833 5832 5830 5829 5827 5824 5822 5819 5816 5813 5809 5805 5800 5796 5790 5784 5778 5771 5764 5756 5748 5740 5732 5724 5716 5707 5699 5691 5683 5674 5666 5657 5649 5640 5632 5625 5618 5611 5604 5597 5590 5584
5832 5831 5829 5828 5826 5824 5822 5820 5817 5814 5811 5808 5805 5801 5796 5791 5786 5780 5774 5768 5760 5753 5745 5737 5729 5721 5713 5705 5697 5689 5681 5673 5665 5656 5648 5640 5632 5625 5618 5611 5604 5597 5591 5585